Погода Звериноголовская

Погода Звериноголовская : погода сейчас, прогноз погоды и архив. Всё, что Вы хотите узнать о погоде Звериноголовская!

Поиск расширенной информации на нашем сайте:

Другие новости

Новости СМИ2

Главная страница сайта

Новости сайта

03.07.2017

Напоминаем, что на нашем специализированном сайте Метеоцентр.Азия вы можете получить высокодетализированные автоматические прогнозы погоды по пунктам России, СНГ и мира в авиационном формате (включающие направление и скорость ветра, видимость, явления погоды, количество и форму облачности, нижнюю и верхнюю границу облачности).


Погода Звериноголовская - сегодня

Время (UTC), дата Ветер
(°,м/с) 
Видим.   Явления Облачность Т
(°С)
Тd
(°С)
f(%) Тe
(°С)
Pmin
(гПа)
dP
(гПа)
Po
(мм)
O2
(г/м3)
Тmin Tmax R s Состояние
почвы
21 11.12.17 тихо ()   10 км  {снег}  ясно 
-19.4 -21.8 81 -19  1033.9  763  333           
00 12.12.17 тихо ()   10 км    ясно 
-20.1 -22.8 79 -20  1035.2  1.2  764  334           
03 12.12.17 тихо ()   10 км    3/0 верхняя 
[Cs]
-19.5 -22 81 -20  1036.6  1.4  765  334  -21.4      равномерный
сухой снег
100% 
06 12.12.17 тихо ()   20000 м    ясно 
-16.6 -19 82 -17  1037.6  1.2  766  330           
09 12.12.17 300 (СЗ) 20000 м    3/0 верхняя 
[Cs]
-13 -15.2 84 -13  1038.1  0.6  767  326           
12 12.12.17 тихо ()   10 км    ясно 
-16.7 -18.9 83 -17  1039.7  1.4  768  331           
15 12.12.17 080 (В) 10 км    ясно 
-21 -23.8 78 -21  1041.3  1.2  769  337    -12.8       
18 12.12.17 180 (Ю) 10 км    ясно 
-21 -23.8 78 -21  1042.2  0.9  769  338           
21 12.12.17 тихо ()   10 км    ясно 
-19.6 -22.2 80 -20  1043  0.8  770  336           
00 13.12.17 210 (ЮЗ) 10 км    ясно 
-19.2 -21.8 80 -19  1043.7  0.7  771  336           
03 13.12.17 160 (Ю) 10 км    10/0 верхняя 
[Cs]
-20 -22.6 80 -20  1044.4  0.7  771  337  -22.4      равномерный
сухой снег
100% 
06 13.12.17 170 (Ю) 20000 м    10/0 верхняя 
[Cs]
-19.2 -21.8 80 -19  1045.5  1.1  772  336           
09 13.12.17 180 (Ю) 20000 м    ясно 
-16.5 -18.9 82 -17  1045.3  772  333           
12 13.12.17 150 (ЮВ) 10 км    ясно 
-19.3 -22 79 -20  1045.5  772  336           
15 13.12.17 200 (Ю) 10 км    ясно 
-18.6 -21.2 80 -19  1045.9  0.5  772  336    -16       
18 13.12.17 180 (Ю) 10 км    ясно 
-19.8 -22.5 79 -20  1045.9  772  337           
21 13.12.17 190 (Ю) 10 км    ясно 
-19.5 -22.1 80 -22  1045.6  -0.4  772  337           
00 14.12.17 190 (Ю) 10 км    ясно 
-20.2 -22.9 79 -20  1046  0.4  772  338           
03 14.12.17 150 (ЮВ) 10 км    ясно 
-22.6 -25.6 76 -23  1046.4  0.3  772  341  -22.8      равномерный
сухой снег
100% 
06 14.12.17 200 (Ю) 20000 м    8/0 верхняя 
[Ci fib]
-17 -19.4 82 -19  1045.7  -0.3  772  333           
09 14.12.17 190 (Ю) 20000 м    8/0 верхняя 
[Cs]
-16.6 -19.1 81 -19  1045.7  772  333           
12 14.12.17 210 (ЮЗ) 10 км    8/0 верхняя 
[Cs]
-18.9 -21.6 79 -19  1046.1  0.3  772  336           
15 14.12.17 190 (Ю) 10 км    ясно 
-19 -21.7 79 -23  1045.9  -0.2  772  336    -16.5       
18 14.12.17 190 (Ю) 10 км    ясно 
-20.1 -23 78 -24  1045.6  -0.4  772  337           
21 14.12.17 180 (Ю) 10 км    ясно 
-20.4 -23.4 77 -25  1045.3  -0.3  772  338           
Время (UTC), дата Ветер
(°,м/с) 
Видим.   Явления Облачность Т
(°С)
Тd
(°С)
f(%) Тe
(°С)
Pmin
(гПа)
dP
(гПа)
Po
(мм)
O2
(г/м3)
Тmin Tmax R s Состояние
почвы

Для получения пояснительной информации подведите курсор к названию столбца.

ПОГОДА Звериноголовская - архив

Всё, что Вы хотите узнать о погоде Звериноголовская - удобно и подробно!

Выберите нужную дату (начиная с 1 января 2015* года) и нажмите кнопку "Найти".
Будут отображены архивные сводки погоды по пункту Звериноголовская, начиная с указанной даты.


Отображать данные в формате CSV (для использования в таблицах Excel)


Внимание! Наш архив погоды предназначен исключительно для личного некоммерческого использования в познавательных целях. Если Вам необходимы официальные справки о состоянии погоды (для производственных, юридических, коммерческих и т.п. целей), обращайтесь в органы Росгидромета.

*Примечание: данная дата относится к архиву по метеостанциям СССР (Россия, СНГ, Балтия).
Архив по метеостанциям Зарубежной Европы и Азии (кроме Китая) хранится 10 дней, по другим регионам земного шара (Китай, Африка, Америка, Австралия, Океания) - 1 день.

Звериноголовская - район местоположения метеостанции


Название, широта, долгота, высота метеостанции:
Звериноголовская 54.5°ш. 64.9°д. 117 м над ур. моря [Российская Федерация]

Дополнительная информация

В oтличие oт бoльшинства пoгoдных сайтoв мы публикуем пoдрoбную метеoинфoрмацию в детальнoм прoфессиoнальнoм фoрмате.

Характеристики температуры и влажнoсти вoздуха измеряются на высoте 2 м в тени вдали oт зданий и деревьев.
Скoрoсть ветра измеряется на высoте 10 м (на урoвне рoста челoвека скoрoсть ветра ниже в 1.5-2 раза). Если метеoстанция нахoдится в гoрoде или в лесу, тo скoрoсть ветра занижена на 2-4 м/с пo сравнению с oткрытым местoм. Скoрoсть ветра над акватoриями крупных рек и oзёр, а также на вершинах хoлмoв на 2-5 м/с выше, чем в oбычных услoвиях.
Атмoсфернoе давление в разных тoчках местнoсти мoжет значительнo oтличаться oт давления на метеoстанции, в зависимoсти oт услoвий рельефа (при пoдъёме на 10 м давление пoнижается примернo на 1 мм рт.ст.).